Date String (YYYY-MM-DD hh:mm:ss) UTC,Instrument flags,Ambient pressure (hPa),Sample flow (lpm),Bypass flow (lpm),Sample temperature (°C),Ambient temperature (°C),ASC tube jacket temperature (°C),LED temperature (°C),Box temperature (°C),Sample RH (%),Span deviation,Mass concentration (μg/m³),Mass concentration (μg/m³),Mass concentration (μg/m³)
DateTimeUTC,F1_M11,P_M11,Q1_M11,Q2_M11,T1_M11,T2_M11,T3_M11,T4_M11,T5_M11,U1_M11,ZSPAN_M11,X2_M11,X0_M11,X1_M11
2023-02-13 18:00:00,,0817.0,5.01,0.00,24.0,22.9,00.0,32.7,25.9,09.5,0000.0,0004.40,0008.28,0004.02
2023-02-13 18:01:00,,0817.0,5.02,0.00,24.0,22.9,00.0,32.8,25.9,09.7,0000.0,0004.44,0008.87,0004.07
2023-02-13 18:02:00,,0816.9,5.02,0.00,24.1,22.9,00.0,32.8,26.0,09.8,0000.0,0004.46,0009.20,0004.11
2023-02-13 18:03:00,,0817.3,5.00,0.00,24.1,22.9,00.0,32.8,26.0,09.9,0000.0,0004.50,0009.22,0004.14
2023-02-13 18:04:00,,0816.9,5.00,0.00,24.1,23.0,00.0,32.8,26.0,10.0,0000.0,0004.56,0009.58,0004.20
2023-02-13 18:05:00,,0816.9,5.00,0.00,24.1,23.0,00.0,32.8,26.0,09.9,0000.0,0004.63,0009.26,0004.26
2023-02-13 18:06:00,,0816.9,5.00,0.00,24.1,23.0,00.0,32.8,26.0,09.9,0000.0,0004.70,0009.51,0004.32
2023-02-13 18:07:00,,0816.9,5.02,0.00,24.1,22.9,00.0,32.8,26.0,09.9,0000.0,0004.76,0009.68,0004.35
2023-02-13 18:08:00,,0816.9,4.99,0.00,24.1,23.0,00.0,32.9,26.0,09.7,0000.0,0004.79,0009.69,0004.38
2023-02-13 18:09:00,,0816.8,4.98,0.00,24.1,23.0,00.0,32.9,26.0,09.7,0000.0,0004.84,0009.63,0004.42
2023-02-13 18:10:00,,0816.8,4.99,0.00,24.2,23.0,00.0,32.9,26.0,09.5,0000.0,0004.89,0009.57,0004.45
2023-02-13 18:11:00,,0817.1,5.00,0.00,24.2,23.0,00.0,32.9,26.0,09.5,0000.0,0004.92,0009.59,0004.48
2023-02-13 18:12:00,,0816.7,4.99,0.00,24.2,23.0,00.0,32.9,26.1,09.5,0000.0,0004.93,0009.08,0004.48
2023-02-13 18:13:00,,0816.6,5.01,0.00,24.2,23.0,00.0,32.9,26.1,09.1,0000.0,0004.90,0008.59,0004.45
2023-02-13 18:14:00,,0816.5,4.98,0.00,24.2,23.0,00.0,32.9,26.1,08.9,0000.0,0004.85,0008.48,0004.41
2023-02-13 18:15:00,,0816.4,5.00,0.00,24.2,23.0,00.0,32.9,26.1,08.7,0000.0,0004.77,0008.06,0004.33
2023-02-13 18:16:00,,0816.4,5.00,0.00,24.2,23.0,00.0,32.9,26.1,08.5,0000.0,0004.66,0008.10,0004.23
2023-02-13 18:17:00,,0816.5,4.99,0.00,24.2,23.0,00.0,32.9,26.1,08.4,0000.0,0004.52,0007.82,0004.12
2023-02-13 18:18:00,,0816.4,5.01,0.00,24.2,23.0,00.0,32.9,26.1,08.2,0000.0,0004.37,0007.51,0004.01
2023-02-13 18:19:00,,0816.4,5.00,0.00,24.2,23.0,00.0,33.0,26.1,08.2,0000.0,0004.25,0007.40,0003.90
2023-02-13 18:20:00,,0816.5,5.00,0.00,24.2,23.0,00.0,33.0,26.1,08.2,0000.0,0004.13,0007.26,0003.77
2023-02-13 18:21:00,,0816.5,5.01,0.00,24.2,23.0,00.0,33.0,26.1,08.0,0000.0,0003.99,0007.03,0003.64
2023-02-13 18:22:00,,0816.6,4.99,0.00,24.2,23.0,00.0,33.0,26.1,08.0,0000.0,0003.89,0006.85,0003.54
2023-02-13 18:23:00,,0816.7,4.98,0.00,24.2,23.0,00.0,33.0,26.1,08.2,0000.0,0003.79,0006.76,0003.45
2023-02-13 18:24:00,,0816.6,5.01,0.00,24.2,23.0,00.0,33.0,26.2,08.5,0000.0,0003.73,0006.60,0003.39
2023-02-13 18:25:00,,0816.5,5.01,0.00,24.2,23.0,00.0,33.0,26.1,08.2,0000.0,0003.69,0006.50,0003.34
2023-02-13 18:26:00,,0816.4,4.99,0.00,24.2,23.0,00.0,33.0,26.2,08.7,0000.0,0003.70,0006.80,0003.32
2023-02-13 18:27:00,,0816.3,5.02,0.00,24.3,23.1,00.0,33.0,26.2,09.2,0000.0,0003.76,0006.61,0003.35
2023-02-13 18:28:00,,0816.3,5.00,0.00,24.3,23.1,00.0,33.0,26.2,09.1,0000.0,0003.81,0007.86,0003.38
2023-02-13 18:29:00,,0816.3,4.99,0.00,24.3,23.1,00.0,33.0,26.2,08.8,0000.0,0003.83,0008.46,0003.41
2023-02-13 18:30:00,,0816.3,4.99,0.00,24.3,23.1,00.0,33.0,26.2,08.5,0000.0,0003.85,0008.46,0003.44
2023-02-13 18:31:00,,0816.3,5.01,0.00,24.3,23.1,00.0,33.1,26.2,08.6,0000.0,0003.87,0008.49,0003.46
2023-02-13 18:32:00,,0816.2,5.00,0.00,24.3,23.1,00.0,33.1,26.2,08.8,0000.0,0003.92,0008.53,0003.51
2023-02-13 18:33:00,,0816.3,4.98,0.00,24.3,23.1,00.0,33.1,26.2,08.8,0000.0,0003.95,0008.51,0003.54
2023-02-13 18:34:00,,0816.2,4.99,0.00,24.3,23.2,00.0,33.1,26.2,08.6,0000.0,0004.00,0008.91,0003.57
2023-02-13 18:35:00,,0816.1,5.00,0.00,24.4,23.2,00.0,33.1,26.3,08.7,0000.0,0004.04,0009.39,0003.59
2023-02-13 18:36:00,,0816.2,5.01,0.00,24.4,23.2,00.0,33.1,26.3,08.6,0000.0,0004.05,0009.67,0003.61
2023-02-13 18:37:00,,0816.1,5.00,0.00,24.4,23.2,00.0,33.1,26.3,08.5,0000.0,0004.07,0009.85,0003.63
2023-02-13 18:38:00,,0816.0,5.00,0.00,24.4,23.2,00.0,33.1,26.3,08.9,0000.0,0004.04,0009.79,0003.62
2023-02-13 18:39:00,,0816.0,4.99,0.00,24.4,23.2,00.0,33.1,26.3,08.3,0000.0,0004.01,0009.24,0003.59
2023-02-13 18:40:00,,0816.0,4.99,0.00,24.4,23.3,00.0,33.2,26.3,07.6,0000.0,0003.95,0008.45,0003.52
2023-02-13 18:41:00,,0816.0,5.00,0.00,24.4,23.3,00.0,33.2,26.4,08.1,0000.0,0003.92,0008.78,0003.47
2023-02-13 18:42:00,,0816.0,5.01,0.00,24.5,23.3,00.0,33.2,26.4,08.2,0000.0,0003.91,0008.74,0003.47
2023-02-13 18:43:00,,0815.9,5.00,0.00,24.5,23.3,00.0,33.2,26.4,08.3,0000.0,0003.88,0008.71,0003.44
2023-02-13 18:44:00,,0815.9,4.99,0.00,24.5,23.3,00.0,33.2,26.4,08.5,0000.0,0003.87,0008.72,0003.42
2023-02-13 18:45:00,,0815.8,4.99,0.00,24.5,23.3,00.0,33.2,26.4,08.3,0000.0,0003.85,0008.75,0003.42
2023-02-13 18:46:00,,0815.7,4.99,0.00,24.5,23.3,00.0,33.2,26.4,07.9,0000.0,0003.81,0008.83,0003.40
2023-02-13 18:47:00,,0815.7,5.00,0.00,24.5,23.4,00.0,33.2,26.4,08.1,0000.0,0003.78,0009.47,0003.38
2023-02-13 18:48:00,,0815.6,5.00,0.00,24.5,23.4,00.0,33.3,26.4,08.0,0000.0,0003.77,0009.17,0003.36
2023-02-13 18:49:00,,0815.6,5.00,0.00,24.6,23.4,00.0,33.3,26.5,07.6,0000.0,0003.71,0009.07,0003.32
2023-02-13 18:50:00,,0815.7,4.99,0.00,24.6,23.4,00.0,33.3,26.5,08.2,0000.0,0003.66,0008.98,0003.26
2023-02-13 18:51:00,,0815.7,5.00,0.00,24.6,23.4,00.0,33.3,26.5,08.0,0000.0,0003.70,0009.05,0003.31
2023-02-13 18:52:00,,0815.7,4.97,0.00,24.6,23.4,00.0,33.3,26.5,07.8,0000.0,0003.74,0008.61,0003.34
2023-02-13 18:53:00,,0815.7,4.98,0.00,24.6,23.5,00.0,33.3,26.5,07.7,0000.0,0003.74,0008.56,0003.33
2023-02-13 18:54:00,,0816.0,5.00,0.00,24.6,23.5,00.0,33.3,26.5,08.0,0000.0,0003.72,0008.50,0003.32
2023-02-13 18:55:00,,0816.0,5.01,0.00,24.6,23.5,00.0,33.4,26.5,08.1,0000.0,0003.71,0008.43,0003.32
2023-02-13 18:56:00,,0815.7,5.01,0.00,24.7,23.5,00.0,33.4,26.5,08.1,0000.0,0003.70,0008.37,0003.30
2023-02-13 18:57:00,,0815.4,4.98,0.00,24.7,23.6,00.0,33.4,26.6,07.6,0000.0,0003.68,0007.88,0003.28
2023-02-13 18:58:00,,0815.4,5.00,0.00,24.7,23.6,00.0,33.4,26.6,07.3,0000.0,0003.63,0006.27,0003.25
2023-02-13 18:59:00,,0815.4,5.01,0.00,24.7,23.6,00.0,33.4,26.6,07.0,0000.0,0003.57,0005.88,0003.21
